2018-096U (43737 NORAD) Tracking and Keplerian Element Data

This shows tracking and keplerian element data for the satellite.

Feedback or suggestion? Click here.




ElementValue
Catalog43737
Name2018-096U
Epoch Orbit458
Epoch Day363.17075016
Epoch Year2018
RAAN68.2428
Inclination97.4815
Eccentricity0.0022014
Argument of Perigee222.5649
Mean Anonmoly137.3884
Mean Motion15.272391
Decay Rate1.718E-05
L11 43737U 18096U 18363.17075016 .00001718 00000-0 66833-4 0 9993
L22 43737 97.4815 68.2428 0022014 222.5649 137.3884 15.27239100 4580

Live tracking and technical data element details for 2018-096U (NORAD 43737). 2018-096U can be tracked NOW for your location showing map with azimuth and elevation plus other details from your city location.

Track the satellite on the map from your city or location and see movement details for azimuth, elevation, latitude, longitude, range, height, and movement on the map or in text.







IsCatalogInMostPopularTable: catalog: 43737, numindb: 73
Update: records affected: 1



GetName: 43737 2018-096U

Hit Count: updated at: Mon, 27 May 2019 02:57:57 GMT